{"data":{"norad_id":54004,"epoch":"2026-09-20T22:00:03.000096Z","epoch_age_seconds":50465,"freshness":"FRESH","line1":"1 54004U 22125AS  26263.91670139  .00075278  00000+0  29094-2 0  9994","line2":"2 54004  53.1586  56.0732 0002159  86.1786 110.3813 15.25584354  5755","mean_motion":15.25584354,"eccentricity":0.0002159,"inclination_deg":53.1586,"raan_deg":56.0732,"arg_perigee_deg":86.1786,"mean_anomaly_deg":110.3813,"bstar":0.0029094,"rev_number":575,"period_min":94.390060846154,"perigee_km":487.5486695995,"apogee_km":490.51391286765,"semimajor_km":6867.1682912336,"source":"CELESTRAK","updated_at":"2026-09-21T09:00:33.073122Z"}}